Hourly Weather Roundup
Issued by NWS Central Illinois

Home | Current Version | Previous Version | Graphics & Text | Print | Product List | Glossary On
Versions: 1 2 3 4 5 6 7 8 9 10 11 12 13 14 15 16 17 18 19 20 21 22 23 24 25 26 27 28 29 30 31 32 33 34 35 36 37 38 39 40 41 42 43 44 45 46 47 48 49 50
000
NZUS43 KILX 010310
HWRILX

AREA WEATHER ROUNDUP
NATIONAL WEATHER SERVICE, LINCOLN IL
1000 PM CDT SUN AUG 31 2014


CITY           SKY/WX    TMP DP  RH WIND       PRES   REMARKS
BLOOMINGTON    CLEAR     72  69  90 S6        29.91R
CHAMPAIGN      CLEAR     75  71  87 S9        29.91S
DECATUR        CLEAR     76  71  85 S8        29.91R
FLORA          CLEAR     74  71  92 S6        29.93S
GALESBURG      CLEAR     73  69  88 SE3       29.84F
JACKSONVILLE   CLEAR     78  73  83 S9        29.88R HX  81
LACON          CLEAR     74  69  85 CALM      29.87R
LAWRENCEVILLE  MOCLDY    75  73  93 S8        29.94F
LITCHFIELD     CLEAR     73  71  92 S10       29.90S
$$


CITY           SKY/WX    TMP DP  RH WIND       PRES   REMARKS
LINCOLN        CLEAR     76  72  87 S5        29.87R
MACOMB         CLEAR     71  68  91 S7        29.87R
MATTOON        CLEAR     75  71  87 S8        29.91S
MT CARMEL AP   PTCLDY    77  73  88 S6        29.94F
OLNEY-NOBLE AP CLEAR     73  72  94 CALM      29.93F
PARIS          CLEAR     72  71  95 SE5       29.92F
PEORIA         CLEAR     78  69  73 S9        29.88R HX  80
PONTIAC        CLEAR     73  72  94 S6        29.89R FOG
RANTOUL        CLEAR     75  69  80 SE7       29.92R
ROBINSON       CLEAR     75  73  94 S7        29.94F
SPRINGFIELD    CLEAR     78  72  81 S10       29.89R HX  80
TAYLORVILLE    CLEAR     72  70  94 S8        29.89R
$$

...REGIONAL REPORTS...


CITY           SKY/WX    TMP DP  RH WIND       PRES   REMARKS
CHICAGO O`HARE CLEAR     76  69  79 S8        29.85F
KANKAKEE       CLEAR     73  70  92 SE5       29.89R
MOLINE         PTCLDY    75  68  78 S13       29.81R
MOUNT VERNON   CLEAR     75  68  78 S5        29.93S
PITTSFIELD     CLEAR     76  71  86 SE6       29.87R
QUINCY         CLEAR     77  69  76 SE10      29.84R
ROCKFORD       PTCLDY    74  69  85 S14       29.85R
$$


CITY           SKY/WX    TMP DP  RH WIND       PRES   REMARKS
BURLINGTON     PTCLDY    78  70  76 S9        29.81S HX  80
CEDAR RAPIDS   CLOUDY    78  71  79 S14G20    29.76S HX  80
DES MOINES     TSTM      70  66  87 NW33G51   29.76R SQUALL  VSB 3/4
KIRKSVILLE     CLOUDY    77  65  66 SE13      29.80S
OTTUMWA        CLOUDY    79  68  69 S17       29.74F HX  81
ST LOUIS       CLEAR     80  70  71 S13       29.88S HX  83
$$


CITY           SKY/WX    TMP DP  RH WIND       PRES   REMARKS
TERRE HAUTE    CLEAR     74  70  87 S7        29.93F
EVANSVILLE     CLEAR     76  72  87 SE3       29.96F
INDIANAPOLIS   PTCLDY    74  69  85 S10       29.94F
LAFAYETTE      PTCLDY    74  71  91 S7        29.91F
MADISON        CLEAR     77  68  73 S13       29.81R
MILWAUKEE      PTCLDY    75  66  73 S8        29.84F
$$




USA.gov is the U.S. government's official web portal to all federal, state and local government web resources and services.